• In Deutschland
  • Länderverzeichnis
  • Für 7 Tage
  • Wassertemperatur
  • Satellitenkarten
  • Wetterkarte
  • Widgets
  • user-avatar
    Anmelden

    Stündliche Wetter Kaprun

    Heute, 20 August, Sonntag

    Zeit Temperatur Niederschläge Wind Luftdruck Luftfeuchtigkeit
    00:00 +4°C° 0,5 mm 2 m/S 600 mmHg 96%
    01:00 +4°C° 0,5 mm 2 m/S 600 mmHg 96%
    02:00 +4°C° 0,1 mm 2 m/S 599 mmHg 96%
    03:00 +3°C° 0,1 mm 2 m/S 599 mmHg 96%
    04:00 +3°C° 0,1 mm 2 m/S 599 mmHg 96%
    05:00 +3°C° 0,2 mm 2 m/S 599 mmHg 95%
    06:00 +4°C° 0,2 mm 2 m/S 600 mmHg 95%
    07:00 +4°C° 0,2 mm 2 m/S 600 mmHg 94%
    08:00 +5°C° 0,4 mm 2 m/S 601 mmHg 89%
    09:00 +6°C° 0,4 mm 2 m/S 601 mmHg 83%
    10:00 +7°C° 0,4 mm 2 m/S 602 mmHg 78%
    11:00 +8°C° 0,1 mm 2 m/S 602 mmHg 74%
    12:00 +9°C° 0,1 mm 2 m/S 602 mmHg 69%
    13:00 +10°C° 0,1 mm 2 m/S 602 mmHg 65%
    14:00 +10°C° 0,1 mm 2 m/S 603 mmHg 64%
    15:00 +10°C° 0,1 mm 2 m/S 603 mmHg 64%
    16:00 +10°C° 0,1 mm 2 m/S 603 mmHg 63%
    17:00 +8°C° 0,1 mm 2 m/S 602 mmHg 71%
    18:00 +7°C° 0,1 mm 2 m/S 602 mmHg 80%
    19:00 +6°C° 0,1 mm 1 m/S 601 mmHg 88%
    20:00 +5°C° 0 mm 1 m/S 601 mmHg 91%
    21:00 +3°C° 0 mm 2 m/S 601 mmHg 93%
    22:00 +3°C° 0 mm 2 m/S 601 mmHg 95%
    23:00 +2°C° 0 mm 2 m/S 601 mmHg 95%

    Morgen, 21 August, Montag

    Zeit Temperatur Niederschläge Wind Luftdruck Luftfeuchtigkeit
    00:00 +2°C° 0 mm 2 m/S 601 mmHg 95%
    01:00 +3°C° 0 mm 1 m/S 601 mmHg 94%
    02:00 +2°C° 0 mm 1 m/S 600 mmHg 94%
    03:00 +1°C° 0 mm 2 m/S 600 mmHg 94%
    04:00 +1°C° 0 mm 2 m/S 600 mmHg 93%
    05:00 +3°C° 0 mm 1 m/S 600 mmHg 89%
    06:00 +4°C° 0 mm 1 m/S 601 mmHg 85%
    07:00 +5°C° 0 mm 1 m/S 601 mmHg 80%
    08:00 +7°C° 0 mm 1 m/S 602 mmHg 69%
    09:00 +8°C° 0 mm 2 m/S 603 mmHg 59%
    10:00 +10°C° 0 mm 2 m/S 604 mmHg 48%
    11:00 +12°C° 0 mm 2 m/S 604 mmHg 45%
    12:00 +13°C° 0 mm 2 m/S 604 mmHg 42%
    13:00 +14°C° 0 mm 2 m/S 604 mmHg 39%
    14:00 +14°C° 0 mm 2 m/S 604 mmHg 42%
    15:00 +13°C° 0 mm 2 m/S 604 mmHg 44%
    16:00 +13°C° 0 mm 2 m/S 603 mmHg 47%
    17:00 +10°C° 0 mm 2 m/S 603 mmHg 59%
    18:00 +8°C° 0 mm 2 m/S 602 mmHg 70%
    19:00 +7°C° 0 mm 1 m/S 601 mmHg 81%
    20:00 +6°C° 0 mm 1 m/S 601 mmHg 85%
    21:00 +5°C° 0 mm 1 m/S 601 mmHg 89%
    22:00 +4°C° 0 mm 1 m/S 601 mmHg 93%
    23:00 +4°C° 0 mm 1 m/S 601 mmHg 93%

    übermorgen, 22 August, Dienstag

    Zeit Temperatur Niederschläge Wind Luftdruck Luftfeuchtigkeit
    00:00 +3°C° 0 mm 1 m/S 601 mmHg 93%
    01:00 +3°C° 0 mm 1 m/S 600 mmHg 93%
    02:00 +3°C° 0 mm 1 m/S 600 mmHg 92%
    03:00 +3°C° 0 mm 1 m/S 600 mmHg 91%
    04:00 +3°C° 0 mm 1 m/S 600 mmHg 90%
    05:00 +4°C° 0 mm 1 m/S 600 mmHg 85%
    06:00 +5°C° 0 mm 1 m/S 601 mmHg 80%
    07:00 +7°C° 0 mm 1 m/S 602 mmHg 75%
    08:00 +9°C° 0 mm 1 m/S 603 mmHg 67%
    09:00 +12°C° 0 mm 1 m/S 604 mmHg 59%
    10:00 +14°C° 0 mm 1 m/S 605 mmHg 50%
    11:00 +15°C° 0 mm 1 m/S 605 mmHg 48%
    12:00 +16°C° 0 mm 1 m/S 605 mmHg 46%
    13:00 +18°C° 0 mm 1 m/S 605 mmHg 44%
    14:00 +16°C° 0 mm 1 m/S 604 mmHg 47%
    15:00 +16°C° 0 mm 1 m/S 604 mmHg 50%
    16:00 +15°C° 0 mm 2 m/S 603 mmHg 53%
    17:00 +13°C° 0 mm 1 m/S 602 mmHg 65%
    18:00 +11°C° 0 mm 1 m/S 601 mmHg 77%
    19:00 +8°C° 0 mm 1 m/S 600 mmHg 89%
    20:00 +8°C° 0 mm 1 m/S 600 mmHg 91%
    21:00 +7°C° 0 mm 1 m/S 600 mmHg 92%
    22:00 +6°C° 0 mm 1 m/S 600 mmHg 94%
    23:00 +6°C° 0 mm 1 m/S 600 mmHg 93%

    23 August, Mittwoch

    Zeit Temperatur Niederschläge Wind Luftdruck Luftfeuchtigkeit
    00:00 +6°C° 0 mm 1 m/S 600 mmHg 93%
    01:00 +5°C° 0 mm 1 m/S 599 mmHg 92%
    02:00 +5°C° 0 mm 1 m/S 599 mmHg 92%
    03:00 +5°C° 0 mm 1 m/S 599 mmHg 92%
    04:00 +5°C° 0 mm 1 m/S 599 mmHg 91%
    05:00 +7°C° 0 mm 1 m/S 600 mmHg 87%
    06:00 +8°C° 0 mm 1 m/S 600 mmHg 83%
    07:00 +9°C° 0 mm 1 m/S 601 mmHg 78%
    08:00 +12°C° 0 mm 1 m/S 602 mmHg 68%
    09:00 +14°C° 0 mm 1 m/S 603 mmHg 57%
    10:00 +18°C° 0 mm 1 m/S 605 mmHg 46%
    11:00 +19°C° 0 mm 1 m/S 605 mmHg 45%
    12:00 +19°C° 0 mm 1 m/S 605 mmHg 43%
    13:00 +20°C° 0 mm 1 m/S 605 mmHg 41%
    14:00 +20°C° 0,2 mm 1 m/S 605 mmHg 44%
    15:00 +19°C° 0,2 mm 1 m/S 604 mmHg 48%
    16:00 +19°C° 0,2 mm 1 m/S 604 mmHg 51%
    17:00 +15°C° 0,2 mm 1 m/S 603 mmHg 63%
    18:00 +13°C° 0,2 mm 1 m/S 602 mmHg 74%
    19:00 +9°C° 0,2 mm 0 m/S 601 mmHg 86%
    20:00 +10°C° 0 mm 1 m/S 601 mmHg 85%
    21:00 +9°C° 0 mm 1 m/S 601 mmHg 85%
    22:00 +8°C° 0 mm 1 m/S 601 mmHg 85%
    23:00 +8°C° 0 mm 1 m/S 601 mmHg 84%

    24 August, Donnerstag

    Zeit Temperatur Niederschläge Wind Luftdruck Luftfeuchtigkeit
    00:00 +8°C° 0 mm 1 m/S 601 mmHg 83%
    01:00 +8°C° 0 mm 1 m/S 601 mmHg 82%
    02:00 +7°C° 0 mm 1 m/S 601 mmHg 82%
    03:00 +7°C° 0 mm 1 m/S 601 mmHg 82%
    04:00 +7°C° 0 mm 1 m/S 600 mmHg 81%
    05:00 +9°C° 0 mm 1 m/S 601 mmHg 79%
    06:00 +10°C° 0 mm 1 m/S 602 mmHg 76%
    07:00 +11°C° 0 mm 1 m/S 603 mmHg 74%
    08:00 +14°C° 0 mm 1 m/S 604 mmHg 64%
    09:00 +16°C° 0 mm 1 m/S 605 mmHg 54%
    10:00 +20°C° 0 mm 1 m/S 606 mmHg 45%
    11:00 +20°C° 0 mm 1 m/S 606 mmHg 44%
    12:00 +21°C° 0 mm 1 m/S 606 mmHg 43%
    13:00 +20°C° 0 mm 2 m/S 606 mmHg 42%
    14:00 +20°C° 0,3 mm 1 m/S 606 mmHg 48%
    15:00 +19°C° 0,3 mm 1 m/S 605 mmHg 55%
    16:00 +19°C° 0,3 mm 1 m/S 605 mmHg 62%
    17:00 +16°C° 0,8 mm 1 m/S 604 mmHg 70%
    18:00 +14°C° 0,8 mm 1 m/S 604 mmHg 79%
    19:00 +11°C° 0,8 mm 0 m/S 603 mmHg 87%
    20:00 +12°C° 0,5 mm 1 m/S 603 mmHg 87%
    21:00 +11°C° 0,5 mm 1 m/S 603 mmHg 87%
    22:00 +11°C° 0,5 mm 1 m/S 603 mmHg 88%
    23:00 +10°C° 0 mm 1 m/S 603 mmHg 87%

    25 August, Freitag

    Zeit Temperatur Niederschläge Wind Luftdruck Luftfeuchtigkeit
    00:00 +10°C° 0 mm 1 m/S 602 mmHg 86%
    01:00 +9°C° 0 mm 1 m/S 602 mmHg 85%
    02:00 +9°C° 0 mm 1 m/S 602 mmHg 84%
    03:00 +9°C° 0 mm 1 m/S 602 mmHg 83%
    04:00 +9°C° 0 mm 1 m/S 602 mmHg 83%
    05:00 +10°C° 0 mm 1 m/S 602 mmHg 80%
    06:00 +11°C° 0 mm 1 m/S 603 mmHg 78%
    07:00 +12°C° 0 mm 1 m/S 604 mmHg 76%
    08:00 +15°C° 0 mm 1 m/S 605 mmHg 66%
    09:00 +18°C° 0 mm 1 m/S 606 mmHg 56%
    10:00 +21°C° 0 mm 1 m/S 607 mmHg 46%
    11:00 +21°C° 0 mm 1 m/S 607 mmHg 45%
    12:00 +22°C° 0 mm 1 m/S 607 mmHg 43%
    13:00 +23°C° 0 mm 2 m/S 607 mmHg 42%
    14:00 +21°C° 0,3 mm 2 m/S 607 mmHg 46%
    15:00 +21°C° 0,3 mm 2 m/S 606 mmHg 50%
    16:00 +20°C° 0,3 mm 2 m/S 606 mmHg 54%
    17:00 +19°C° 0,5 mm 1 m/S 605 mmHg 65%
    18:00 +15°C° 0,5 mm 1 m/S 604 mmHg 75%
    19:00 +13°C° 0,5 mm 1 m/S 603 mmHg 86%
    20:00 +13°C° 0,4 mm 1 m/S 603 mmHg 86%
    21:00 +12°C° 0,4 mm 1 m/S 603 mmHg 87%
    22:00 +11°C° 0,4 mm 1 m/S 603 mmHg 87%
    23:00 +11°C° 0,4 mm 1 m/S 603 mmHg 87%
    Mehr zeigen